User: anonymous   Login
Location: Unspecified
(0.0000°N, 0.0000°E)
Time: 18:23:12
(UTC+00:00)
Language:

STARLINK-31390 - Orbit

View from above orbital plane
View from above orbital plane
View from above satellite
View from above satellite

Ground track
Ground track

The orbit is defined by the following mean orbital elements,

1 58937U          26145.49166625 +.00000000 +00000-0 +45732-4 0 00007
2 58937  53.1605 313.1270 0000945  89.0243 271.0866 15.30197377    08
Epoch (UTC): 25 May 2026 11:47:59
Eccentricity: 0.0000945
inclination: 53.1605°
perigee height: 475 km
apogee height: 476 km
right ascension of ascending node: 313.1270°
argument of perigee: 89.0243°
revolutions per day: 15.30197377
mean anomaly at epoch: 271.0866°

The dashed part of the orbit path shows where the satellite is in the earth's shadow,  

DLR